This is the latest recevied weather packets stored in our database for station/object AB4KN. If no packets are shown the sender has not sent any weather packets the latest 10 day(s).
| Time | Temp. | Humidity | Pressure | Rain* | Wind** | Luminosity | Snow |
|---|---|---|---|---|---|---|---|
| 1777854495 | 17.22° C | 42% | 1022.2 hPa | 0 mm | - | 0 W/m² | - |
| 1777854192 | 17.78° C | 41% | 1022.2 hPa | 0 mm | - | 0 W/m² | - |
| 1777853890 | 17.78° C | 41% | 1022.1 hPa | 0 mm | - | 0 W/m² | - |
| 1777853587 | 17.78° C | 42% | 1022.2 hPa | 0 mm | - | 0 W/m² | - |
| 1777853284 | 18.33° C | 41% | 1022 hPa | 0 mm | - | 1 W/m² | - |
| 1777852981 | 18.33° C | 41% | 1022.3 hPa | 0 mm | - | 2 W/m² | - |
| 1777852679 | 18.89° C | 40% | 1022 hPa | 0 mm | - | 3 W/m² | - |
| 1777852376 | 18.89° C | 39% | 1022 hPa | 0 mm | - | 3 W/m² | - |
| 1777852073 | 19.44° C | 38% | 1021.9 hPa | 0 mm | - | 4 W/m² | - |
| 1777851771 | 19.44° C | 40% | 1022.1 hPa | 0 mm | - | 5 W/m² | - |
| 1777851468 | 19.44° C | 36% | 1022.1 hPa | 0 mm | - | 6 W/m² | - |
| 1777851164 | 19.44° C | 38% | 1022 hPa | 0 mm | - | 6 W/m² | - |
| 1777850861 | 20° C | 39% | 1021.9 hPa | 0 mm | - | 8 W/m² | - |
| 1777850558 | 20° C | 37% | 1021.7 hPa | 0 mm | - | 9 W/m² | - |
| 1777850256 | 20° C | 36% | 1022 hPa | 0 mm | - | 9 W/m² | - |
| 1777849953 | 20° C | 33% | 1022.1 hPa | 0 mm | - | 10 W/m² | - |
| 1777849649 | 20.56° C | 35% | 1022 hPa | 0 mm | - | 10 W/m² | - |
| 1777849346 | 20.56° C | 34% | 1022.2 hPa | 0 mm | - | 10 W/m² | - |
| 1777849044 | 20.56° C | 33% | 1022 hPa | 0 mm | - | 11 W/m² | - |
| 1777848744 | 20.56° C | 34% | 1022.2 hPa | 0 mm | - | 11 W/m² | - |
| 1777848441 | 20.56° C | 35% | 1022.1 hPa | 0 mm | - | 12 W/m² | - |
| 1777848139 | 20.56° C | 34% | 1021.7 hPa | 0 mm | - | 12 W/m² | - |
| 1777847836 | 21.11° C | 32% | 1021.9 hPa | 0 mm | - | 14 W/m² | - |
| 1777847533 | 21.11° C | 31% | 1021.9 hPa | 0 mm | - | 13 W/m² | - |
| 1777847230 | 21.11° C | 32% | 1022.1 hPa | 0 mm | - | 14 W/m² | - |
* Rain latest hour (hover to see other rain measurements)
** Current wind speed in m/s (hover to see current wind gust speed)